Weather History for Skagway, AK

Change the Weather History Date:

Sunday, May 12, 2013

  Actual Average Record
Temperature  
Mean Temperature 46 °F -  
Max Temperature 51 °F 53 °F 74 °F (1970)
Min Temperature 41 °F 39 °F 29 °F (1991)
Degree Days  
Heating Degree Days 19    
Moisture  
Dew Point 43 °F    
Average Humidity 94    
Maximum Humidity 100    
Minimum Humidity 80    
Precipitation  
Precipitation 0.05 in - - ()
Sea Level Pressure  
Sea Level Pressure 29.61 in    
Wind  
Wind Speed 0 mph (SW)    
Max Wind Speed 13 mph    
Max Gust Speed -    
Visibility 5 miles    
Events Fog , Rain    
Averages and records for this station are not official NWS values.
T = Trace of Precipitation, MM = Missing Value Source: NWS Daily Summary

Daily Weather History Graph

Daily Weather History Graph

Search for Another Location

Airport:

Trip Planner

Search our weather history database for the weather conditions in past years. The results will help you decide how hot, cold, wet, or windy it might be!

Date:

Astronomy

May. 12, 2013 Rise Set
Actual Time 4:33 AM AKDT 9:23 PM AKDT
Civil Twilight 3:34 AM AKDT 10:23 PM AKDT
Nautical Twilight 1:32 AM AKDT 12:40 AM AKDT
Astronomical Twilight Sun does not rise Sun does not rise
Moon 6:25 AM AKDT (5/12) No Moon Set
Length of Visible Light 18h 49m
Length of Day
16h 50m
Waxing Crescent, 7% of the Moon is Illuminated
May 12
Waxing Crescent
May 17
First Quarter
May 24
Full
May 31
Last Quarter
Jun 8
New

Hourly Weather History & Observations

Time (AKDT) Temp. Dew Point Humidity Pressure Visibility Wind Dir Wind Speed Gust Speed Precip Events Conditions
12:07 AM 44.6 °F 42.8 °F 93% 29.68 in 1.8 mi Calm Calm - 0.00 in   Overcast
12:11 AM 44.6 °F 42.8 °F 93% 29.68 in 0.8 mi Calm Calm - 0.00 in   Overcast
12:37 AM 44.6 °F 42.8 °F 93% 29.68 in 0.2 mi Calm Calm - 0.00 in Fog Fog
12:46 AM 44.6 °F 42.8 °F 93% 29.68 in 0.5 mi Calm Calm - 0.00 in Fog Fog
12:51 AM 44.6 °F 42.8 °F 93% 29.67 in 1.5 mi Calm Calm - 0.00 in   Overcast
12:53 AM 45.0 °F 43.0 °F 93% 29.67 in 3.0 mi Calm Calm - 0.00 in Rain Light Rain
1:08 AM 44.6 °F 42.8 °F 93% 29.67 in 1.5 mi Calm Calm - 0.00 in Rain Light Rain
1:23 AM 44.6 °F 42.8 °F 93% 29.66 in 1.5 mi Calm Calm - 0.00 in   Overcast
1:29 AM 44.6 °F 42.8 °F 93% 29.66 in 3.0 mi Calm Calm - 0.00 in   Overcast
1:53 AM 44.1 °F 43.0 °F 96% 29.65 in 4.0 mi Calm Calm - 0.00 in   Overcast
2:30 AM 42.8 °F 42.8 °F 100% 29.63 in 1.8 mi Calm Calm - N/A   Overcast
2:39 AM 41.0 °F 41.0 °F 100% 29.64 in 1.0 mi Calm Calm - N/A   Overcast
2:53 AM 43.0 °F 42.1 °F 97% 29.63 in 1.8 mi Calm Calm - N/A   Overcast
2:58 AM 42.8 °F 42.8 °F 100% 29.63 in 3.0 mi Calm Calm - N/A   Overcast
3:29 AM 42.8 °F 42.8 °F 100% 29.63 in 2.5 mi Calm Calm - N/A   Overcast
3:35 AM 42.8 °F 42.8 °F 100% 29.63 in 1.2 mi Calm Calm - N/A   Overcast
3:45 AM 42.8 °F 42.8 °F 100% 29.63 in 0.8 mi Calm Calm - N/A   Overcast
3:53 AM 42.1 °F 41.0 °F 96% 29.63 in 0.8 mi Calm Calm - N/A   Overcast
4:03 AM 42.8 °F 41.0 °F 93% 29.62 in 1.0 mi Calm Calm - N/A   Overcast
4:12 AM 42.8 °F 42.8 °F 100% 29.62 in 2.0 mi Calm Calm - N/A   Overcast
4:22 AM 42.8 °F 42.8 °F 100% 29.62 in 3.0 mi Calm Calm - N/A   Overcast
4:30 AM 42.8 °F 42.8 °F 100% 29.61 in 1.8 mi Calm Calm - N/A   Overcast
4:35 AM 41.0 °F 39.2 °F 93% 29.62 in 0.8 mi Calm Calm - N/A   Overcast
4:51 AM 42.8 °F 42.8 °F 100% 29.61 in 1.5 mi Calm Calm - N/A   Overcast
4:53 AM 43.0 °F 42.1 °F 97% 29.61 in 2.0 mi Calm Calm - N/A   Overcast
5:01 AM 42.8 °F 42.8 °F 100% 29.62 in 1.2 mi Calm Calm - N/A   Overcast
5:15 AM 42.8 °F 42.8 °F 100% 29.61 in 0.5 mi Calm Calm - N/A Fog Fog
5:23 AM 42.8 °F 42.8 °F 100% 29.61 in 1.5 mi Calm Calm - N/A   Overcast
5:26 AM 42.8 °F 42.8 °F 100% 29.61 in 3.0 mi Calm Calm - N/A   Overcast
5:40 AM 42.8 °F 42.8 °F 100% 29.60 in 3.0 mi Calm Calm - N/A   Overcast
5:45 AM 42.8 °F 42.8 °F 100% 29.61 in 1.8 mi Calm Calm - N/A   Overcast
5:53 AM 43.0 °F 42.1 °F 97% 29.62 in 1.5 mi Calm Calm - N/A   Overcast
5:59 AM 42.8 °F 42.8 °F 100% 29.61 in 2.5 mi Calm Calm - 0.01 in Rain Light Rain
6:02 AM 42.8 °F 42.8 °F 100% 29.60 in 1.0 mi Calm Calm - 0.01 in Rain Light Rain
6:10 AM 42.8 °F 42.8 °F 100% 29.61 in 0.5 mi Calm Calm - 0.01 in Fog , Rain Light Rain
6:34 AM 42.8 °F 42.8 °F 100% 29.60 in 2.0 mi Calm Calm - 0.01 in   Overcast
6:41 AM 42.8 °F 42.8 °F 100% 29.60 in 10.0 mi Calm Calm - 0.01 in   Overcast
6:53 AM 43.0 °F 42.1 °F 97% 29.60 in 10.0 mi Calm Calm - 0.01 in   Overcast
7:30 AM 44.6 °F 42.8 °F 93% 29.60 in 10.0 mi Calm Calm - N/A   Overcast
7:53 AM 44.1 °F 43.0 °F 96% 29.60 in 10.0 mi Calm Calm - N/A   Overcast
8:30 AM 42.8 °F 42.8 °F 100% 29.59 in 10.0 mi Calm Calm - N/A   Overcast
8:53 AM 44.1 °F 42.1 °F 93% 29.59 in 10.0 mi Calm Calm - N/A   Overcast
9:33 AM 44.6 °F 42.8 °F 93% 29.60 in 10.0 mi Calm Calm - N/A   Overcast
9:53 AM 44.1 °F 43.0 °F 96% 29.61 in 9.0 mi Calm Calm - N/A   Overcast
10:53 AM 46.0 °F 43.0 °F 89% 29.60 in 10.0 mi Calm Calm - N/A   Overcast
11:53 AM 48.0 °F 44.1 °F 86% 29.61 in 10.0 mi Calm Calm - N/A   Overcast
12:16 PM 48.2 °F 44.6 °F 87% 29.61 in 10.0 mi Calm Calm - N/A   Overcast
12:53 PM 50.0 °F 44.1 °F 80% 29.61 in 10.0 mi Calm Calm - N/A   Overcast
1:11 PM 48.2 °F 44.6 °F 87% 29.62 in 10.0 mi SSW 4.6 mph - N/A   Overcast
1:53 PM 51.1 °F 45.0 °F 80% 29.61 in 10.0 mi SSW 9.2 mph - 0.00 in Rain Light Rain
2:53 PM 48.0 °F 43.0 °F 83% 29.61 in 10.0 mi SSW 11.5 mph - 0.00 in   Overcast
3:53 PM 48.9 °F 44.1 °F 83% 29.59 in 10.0 mi SW 12.7 mph - 0.00 in   Overcast
4:53 PM 50.0 °F 45.0 °F 83% 29.59 in 10.0 mi Calm Calm - 0.00 in   Overcast
5:53 PM 50.0 °F 45.0 °F 83% 29.59 in 10.0 mi West 4.6 mph - N/A   Overcast
6:53 PM 51.1 °F 45.0 °F 80% 29.58 in 10.0 mi Calm Calm - N/A   Mostly Cloudy
7:53 PM 50.0 °F 45.0 °F 83% 29.57 in 10.0 mi SSW 4.6 mph - N/A   Mostly Cloudy
8:53 PM 48.0 °F 43.0 °F 83% 29.57 in 10.0 mi WSW 3.5 mph - 0.00 in Rain Light Rain
9:24 PM 48.2 °F 44.6 °F 87% 29.57 in 9.0 mi Calm Calm - 0.01 in Rain Light Rain
9:53 PM 46.9 °F 44.1 °F 90% 29.58 in 10.0 mi Calm Calm - 0.01 in Rain Light Rain
10:13 PM 48.2 °F 44.6 °F 87% 29.58 in 10.0 mi Calm Calm - 0.01 in Rain Light Rain
10:22 PM 46.4 °F 44.6 °F 93% 29.57 in 10.0 mi Calm Calm - 0.01 in Rain Light Rain
10:33 PM 46.4 °F 44.6 °F 93% 29.58 in 10.0 mi Calm Calm - 0.01 in Rain Light Rain
10:53 PM 46.0 °F 44.1 °F 93% 29.58 in 6.0 mi Calm Calm - 0.03 in Rain Light Rain
11:53 PM 46.9 °F 44.1 °F 90% 29.59 in 10.0 mi Calm Calm - 0.00 in Rain Light Rain